Location: Dalton
(34.7700°N, 84.9700°W)
Time: 00:06:33
(UTC-04:00)

ISS - Pass Details

Date: 12 October 2017
Orbit: 401 x 408 km, 51.6° (Epoch: 18 October)

Event Time Altitude Azimuth Distance (km) Brightness Sun altitude
Rises 21:10:04 0° 314° (NW) 2,323 0.8 -25.7°
Reaches altitude 10° 21:12:09 10° 316° (NW) 1,462 -0.4 -26.1°
Enters shadow 21:13:12 19° 319° (NW) 1,044 -1.3 -26.3°
